Flag for U.S.A. Weather past 2 weeks in Garden Grove, California, U.S.A.

Now
67 °F

Overcast.


Feels Like: 67 °F
Forecast: 64 / 76 °F
Wind: 5 mph from South

Location: Fullerton Municipal Airport

Current Time: Jul 4, 2015 at 8:51:47 AM

Latest Report: Jul 4, 2015 at 7:53 AM


Visibility: 10 mi

Pressure: 29.88 "Hg

Humidity: 79%

Dew point: 60 °F

Location of Garden GroveLocation

Historic Weather in Garden Grove — Graph

°F

Garden Grove temperature yesterday

Maximum temperature yesterday: 85 °F (at 4:53 PM)
Minimum temperature yesterday: 66 °F (at 4:53 AM)
Average temperature yesterday: 73 °F

Past Weeks' High & Low Weather Summary

 TemperatureHumidityPressure
High94 °F (Jun 28, 2:53 PM)97% (Jun 19, 6:53 AM)30.01 "Hg (Jun 19, 6:53 AM)
Low61 °F (Jun 19, 6:53 AM)30% (Jun 30, 7:53 PM)29.77 "Hg (Jun 30, 7:53 PM)
Average74 °F64%29.89 "Hg
* Reported Jun 19 6:53 AM — Jul 4 6:53 AM, Garden Grove, Weather by CustomWeather, © 2015

Note: Actual official high and low records may vary slightly from our data, if they occured in-between our weather recording intervals... More about our weather records

Advertising

Garden Grove weather history for previous 24 hours

 ConditionsComfort  
Time TempWeatherWind HumidityBarometerVisibility
6:53 AM
Sat, Jul 4
66 °FOvercast.3 mph81%29.87 "Hg9 mi
5:53 AM66 °FOvercast.5 mph84%29.87 "Hg10 mi
4:53 AM66 °FOvercast.No wind78%29.86 "Hg10 mi
3:53 AM65 °FPassing clouds.No wind81%29.86 "Hg10 mi
2:53 AM65 °FClear.No wind81%29.87 "Hg10 mi
1:53 AM65 °FClear.3 mph81%29.87 "Hg10 mi
12:53 AM67 °FClear.3 mph79%29.87 "Hg10 mi
11:53 PM
Fri, Jul 3
67 °FClear.No wind79%29.88 "Hg10 mi
10:53 PM68 °FClear.3 mph76%29.88 "Hg10 mi
9:53 PM69 °FClear.3 mph70%29.86 "Hg10 mi
8:53 PM70 °FSunny.6 mph68%29.85 "Hg10 mi
7:53 PM73 °FSunny.6 mph59%29.83 "Hg10 mi
6:53 PM77 °FSunny.7 mph52%29.82 "Hg10 mi
5:53 PM82 °FSunny.6 mph44%29.82 "Hg10 mi
4:53 PM85 °FSunny.6 mph43%29.82 "Hg10 mi
3:53 PM83 °FSunny.8 mph50%29.84 "Hg10 mi
2:53 PM82 °FSunny.9 mph51%29.87 "Hg10 mi
1:53 PM82 °FSunny.7 mph49%29.88 "Hg10 mi
12:53 PM80 °FSunny.No wind51%29.91 "Hg10 mi
11:53 AM76 °FSunny.6 mph60%29.94 "Hg10 mi
10:53 AM74 °FSunny.6 mph64%29.96 "Hg10 mi
9:53 AM74 °FPartly sunny.6 mph67%29.96 "Hg10 mi
9:00 AM72 °FPartly sunny.No wind71%29.97 "Hg10 mi
Weather by CustomWeather, © 2015

See weather overviewHow to use our weather pages